Regional Weather Roundup
Issued by NWS

Home | Current Version | Previous Version | Text Only | Print | Product List | Glossary Off
Versions: 1 2 3 4 5 6 7 8 9 10 11 12 13 14 15 16 17 18 19 20 21 22 23 24 25 26 27 28 29 30 31 32 33 34 35 36 37 38 39 40 41 42 43 44 45 46 47 48 49 50

000
ASUS43 KMKX 280011
RWRWI

WISCONSIN REGIONAL WEATHER ROUNDUP
NATIONAL WEATHER SERVICE MILWAUKEE/SULLIVAN WI
700 PM CDT WED AUG 27 2014

NOTE: "FAIR" INDICATES FEW OR NO CLOUDS BELOW 12,000 FEET WITH NO
SIGNIFICANT WEATHER AND/OR OBSTRUCTIONS TO VISIBILITY.

WIZ001-002-006>008-014>016-023>028-280100-
NORTHWEST WISCONSIN

CITY           SKY/WX    TMP DP  RH WIND       PRES   REMARKS
SUPERIOR ARPT  MOCLDY    68  54  60 SW3       30.12F
6HR MIN TEMP:  67; 6HR MAX TEMP:  73;

ASHLAND        CLEAR     65  56  72 CALM      30.15F
6HR MIN TEMP:  65; 6HR MAX TEMP:  71;

HAYWARD        CLEAR     70  50  49 CALM      30.15F
6HR MIN TEMP:  66; 6HR MAX TEMP:  71;

SIREN          CLEAR     69  52  55 CALM      30.15S
6HR MIN TEMP:  67; 6HR MAX TEMP:  71;

RICE LAKE      CLEAR     68  54  59 N3        30.16F
6HR MIN TEMP:  67; 6HR MAX TEMP:  71;

LADYSMITH      CLEAR     68  52  56 N5        30.17S
6HR MIN TEMP:  67; 6HR MAX TEMP:  72;

EAU CLAIRE     CLEAR     73  56  54 NE3       30.13F
6HR MIN TEMP:  71; 6HR MAX TEMP:  75;

MENOMONIE      CLOUDY    73  56  53 E5        30.13S
6HR MIN TEMP:  71; 6HR MAX TEMP:  75;

NEW RICHMOND   PTCLDY    71  55  57 E5        30.14S
6HR MIN TEMP:  70; 6HR MAX TEMP:  74;

OSCEOLA        PTCLDY    71  56  60 N5        30.16S
6HR MIN TEMP:  69; 6HR MAX TEMP:  74;

$$

WIZ003>005-009-010-017-018-280100-
NORTH CENTRAL WISCONSIN

CITY           SKY/WX    TMP DP  RH WIND       PRES   REMARKS
WOODRUFF       CLEAR     65  48  53 N8        30.16F
6HR MIN TEMP:  64; 6HR MAX TEMP:  71;

RHINELANDER    CLEAR     65  49  56 CALM      30.17S
6HR MIN TEMP:  65; 6HR MAX TEMP:  70;

EAGLE RIVER    CLEAR     65  46  50 N6        30.15F
6HR MIN TEMP:  64; 6HR MAX TEMP:  69;

LAND O LAKES   CLEAR     63  49  59 N8        30.18S
6HR MIN TEMP:  63; 6HR MAX TEMP:  69;

PHILLIPS       CLEAR     66  51  58 NW3       30.15F
6HR MIN TEMP:  64; 6HR MAX TEMP:  69;

TOMAHAWK       CLEAR     65  52  60 CALM      30.16S
6HR MIN TEMP:  64; 6HR MAX TEMP:  69;

MEDFORD        CLEAR     65  52  62 N5        30.16S
6HR MIN TEMP:  65; 6HR MAX TEMP:  70;

MERRILL        CLEAR     67  52  58 CALM      30.15S
6HR MIN TEMP:  66; 6HR MAX TEMP:  71;

$$

WIZ029-030-035-036-043>047-280100-
CENTRAL WISCONSIN

CITY           SKY/WX    TMP DP  RH WIND       PRES   REMARKS
WAUSAU         CLEAR     71  50  47 N6        30.13S
6HR MIN TEMP:  69; 6HR MAX TEMP:  74;

MOSINEE        CLEAR     68  54  60 NW3       30.15F
MARSHFIELD     CLEAR     71  55  56 N5        30.14F
6HR MIN TEMP:  71; 6HR MAX TEMP:  74;

STEVENS POINT  CLEAR     69  55  60 N3        30.14F
6HR MIN TEMP:  68; 6HR MAX TEMP:  72;

WAUPACA        PTCLDY    74  57  53 CALM      30.13F
6HR MIN TEMP:  74; 6HR MAX TEMP:  76;

WAUTOMA        PTCLDY    73  60  63 NE5       30.13F
6HR MIN TEMP:  73; 6HR MAX TEMP:  78;

WISC RAPIDS    PTCLDY    72  57  59 NW6       30.14F
6HR MIN TEMP:  72; 6HR MAX TEMP:  75;

CAMP DOUGLAS   PTCLDY    74  66  76 N1        30.12F
6HR MIN TEMP:  73; 6HR MAX TEMP:  78;

$$

WIZ011>013-019>022-031-037>040-048>050-280100-
NORTHEAST WISCONSIN

CITY           SKY/WX    TMP DP  RH WIND       PRES   REMARKS
ANTIGO         CLEAR     66  52  60 NW3       30.16S
6HR MIN TEMP:  65; 6HR MAX TEMP:  71;

STURGEON BAY   CLEAR     64  55  72 S6        30.14F
6HR MIN TEMP:  64; 6HR MAX TEMP:  70;

GREEN BAY      CLEAR     70  61  73 CALM      30.13F
6HR MIN TEMP:  70; 6HR MAX TEMP:  75;

MANITOWOC      CLEAR     65  57  75 SE7       30.14F
6HR MIN TEMP:  65; 6HR MAX TEMP:  70;

APPLETON       MOCLDY    70  54  56 CALM      30.13F
CLINTONVILLE   MOCLDY    72  55  56 CALM      30.12S
OSHKOSH        MOCLDY    71  58  63 CALM      30.12F
6HR MIN TEMP:  70; 6HR MAX TEMP:  75;

$$

WIZ032>034-041-042-053>061-280100-
SOUTHWEST WISCONSIN

CITY           SKY/WX    TMP DP  RH WIND       PRES   REMARKS
LA CROSSE      MOCLDY    76  59  55 NW5       30.11F
6HR MIN TEMP:  75; 6HR MAX TEMP:  79;

SPARTA         PTCLDY    73  57  56 NW3       30.12F
6HR MIN TEMP:  73; 6HR MAX TEMP:  77;

VIROQUA        FAIR      70  60  70 CALM      30.14S
6HR MIN TEMP:  70; 6HR MAX TEMP:  73;

BOSCOBEL       MOCLDY    74  61  63 NE3       30.11F
6HR MIN TEMP:  74; 6HR MAX TEMP:  79;

PRAIRIE DU CHI MOCLDY    73  58  60 NE3       30.10S
6HR MIN TEMP:  73; 6HR MAX TEMP:  75;

PLATTEVILLE    FAIR      70  62  76 N5        30.11F
6HR MIN TEMP:  70; 6HR MAX TEMP:  76;

$$

WIZ056-057-062-063-064-067-068-280100-
SOUTH CENTRAL WISCONSIN

CITY           SKY/WX    TMP DP  RH WIND       PRES   REMARKS
BARABOO/DELLS  MOCLDY    71  57  61 CALM      30.12F
6HR MIN TEMP:  71; 6HR MAX TEMP:  75;

LONE ROCK      MOCLDY    76  63  64 CALM      30.11F
6HR MIN TEMP:  76; 6HR MAX TEMP:  81;

WATERTOWN      MOCLDY    70  60  70 CALM      30.12S
6HR MIN TEMP:  70; 6HR MAX TEMP:  75;

MADISON        MOCLDY    72  61  68 CALM      30.12F
6HR MIN TEMP:  72; 6HR MAX TEMP:  77;

MIDDLETON      FAIR      71  60  70 CALM      30.13S
6HR MIN TEMP:  71; 6HR MAX TEMP:  77;

MONROE         MOCLDY    70  63  78 NE5       30.11F
JANESVILLE     CLEAR     75  57  53 NE6       30.11F
$$

WIZ051-052-058>065-066-070>072-280100-
SOUTHEAST WISCONSIN

CITY           SKY/WX    TMP DP  RH WIND       PRES   REMARKS
MILWAUKEE      MOCLDY    66  60  81 E7        30.13F
6HR MIN TEMP:  66; 6HR MAX TEMP:  72;

WAUKESHA       MOCLDY    66  61  82 E7        30.14F
MILWAUKEE/TIMM CLEAR     66  59  77 E6        30.14S
RACINE         MOCLDY    68  60  75 NE8       30.14F
6HR MIN TEMP:  68; 6HR MAX TEMP:  75;

BURLINGTON     MOCLDY    68  62  82 E5        30.13S
6HR MIN TEMP:  68; 6HR MAX TEMP:  75;

KENOSHA        CLOUDY    68  62  81 E8        30.13F
6HR MIN TEMP:  68; 6HR MAX TEMP:  76;

FOND DU LAC    PTCLDY    71  56  58 NE6       30.12F
6HR MIN TEMP:  71; 6HR MAX TEMP:  76;

SHEBOYGAN      PTCLDY    65  55  70 E5        30.14F
6HR MIN TEMP:  65; 6HR MAX TEMP:  73;

WEST BEND      PTCLDY    64  57  77 E6        30.14S
JUNEAU         MOCLDY    70  59  69 CALM      30.13F
6HR MIN TEMP:  69; 6HR MAX TEMP:  74;

$$

LSZ147-162-280100-
LAKE SUPERIOR

STATION/POSITION TIME  TEMP    WIND        PRES    WAVE
                       AIR SEA DIR/SP/G            HT/PER
                 (UTC) (F)     (DEG/KT/KT) (MB)    (FT/S)
W MID LAKE BUOY  2350   58 56  200/  6/  6 1021.2F   0
DEVILS ISLAND    0000   62     160/  5/  7 1020.8F
PORT WING        2300   71     240/  3/  5 1020.7F
$$

LMZ867-665-643>646-280100-
LAKE MICHIGAN

STATION/POSITION TIME  TEMP    WIND        PRES    WAVE
                       AIR SEA DIR/SP/G            HT/PER
                 (UTC) (F)     (DEG/KT/KT) (MB)    (FT/S)
N MID LAKE BUOY  2350   64 67  100/  2/  4 1021.1S   0
NORTHPORT PIER   2300   66     140/  5/  9 1020.7S
SISTER BAY       2211   75        CALM       N/A
KEWAUNEE LAKESHO 2300   66     140/  5/  7 1020.2F
SHEBOYGAN LAKESH 0000   66 67   90/  6/  6 1020.7F
ATWATER BUOY     0000   67      60/  8/  8 1021.4S
MILWAUKEE LAKESH 2300   67      70/  6/  8   N/A
S MID LAKE BUOY  2350   67 70   20/ 10/ 12 1020.0F   1/ 2
KENOSHA   LAKESH 0000   69      60/  6/  8 1019.6F
$$

TC  - TEMPERATURE IN CELSIUS
VSB - VISIBILITY IN STATUTE MILES
WCI - WIND CHILL INDEX
HX  - HEAT INDEX




USA.gov is the U.S. government's official web portal to all federal, state and local government web resources and services.